M I D A S
Marine Information and Data Acquisition System
Tripno 310 of the Zeeleeuw from 2002-08-26 06:38:59 to 2002-08-26 12:56:00
Back to CruiseResearch ActivitiesStationsMapUnderway DataData graphs

EquipmentUnitsComment
TimeDGPSUTC
LatitudeDGPSDM.mWGS84
LongitudeDGPSDM.mWGS84
TemperatureSBE03/SBE38deg celciusITS90
ConductivitySBE21S/mITS90
SalinitySBE21 Practical Salinity Units
ChlorophylAChelsea fluorimeterg/lCalibrated in Aceton
Missing or incorrect values are displayed as -999
Sea surface data collected by the RV Zeeleeuw from 2002-08-26 06:38:59 to 2002-08-26 12:56:00
                                                                                    Next 1000 lines
Time Latitude Longitude Temperature Conductivity Salinity ChlorophylA
2002-08-26 06:39:06 51°13.662 2°55.955 22.289312 0.057799 0.284449  
2002-08-26 06:39:11 51°13.662 2°55.955 22.292564 0.057799 0.284453  
2002-08-26 06:39:16 51°13.661 2°55.955 22.294914 0.057799 0.284457  
2002-08-26 06:39:21 51°13.662 2°55.954 22.300634 0.057799 0.284457  
2002-08-26 06:39:26 51°13.662 2°55.954 22.300634 0.057799 0.284457  
2002-08-26 06:39:31 51°13.662 2°55.952 22.300242 0.057799 0.284457  
2002-08-26 06:39:36 51°13.663 2°55.95 22.293308 0.057799 0.284457  
2002-08-26 06:39:41 51°13.664 2°55.948 22.299694 0.057799 0.284461  
2002-08-26 06:39:46 51°13.665 2°55.945 22.293778 0.057799 0.284465  
2002-08-26 06:39:51 51°13.666 2°55.942 22.293151 0.057799 0.284465  
2002-08-26 06:39:56 51°13.667 2°55.938 22.293151 0.057799 0.284465  
2002-08-26 06:40:02 51°13.668 2°55.932 22.276773 0.057799 0.284465  
2002-08-26 06:40:07 51°13.67 2°55.927 22.286687 0.057799 0.284469  
2002-08-26 06:40:12 51°13.671 2°55.922 22.283591 0.057799 0.284469  
2002-08-26 06:40:16 51°13.672 2°55.917 22.285746 0.057799 0.284473  
2002-08-26 06:40:22 51°13.673 2°55.909 22.28606 0.057799 0.284469  
2002-08-26 06:40:27 51°13.674 2°55.903 22.28606 0.057799 0.284469  
2002-08-26 06:40:32 51°13.676 2°55.896 22.287705 0.057799 0.284473  
2002-08-26 06:40:36 51°13.677 2°55.891 22.286569 0.057799 0.284477  
2002-08-26 06:40:42 51°13.678 2°55.882 22.284845 0.057799 0.284477  
2002-08-26 06:40:47 51°13.679 2°55.875 -999 0.057799 0.284477  
2002-08-26 06:40:52 51°13.68 2°55.868 -999 0.057799 0.284481  
2002-08-26 06:40:56 51°13.681 2°55.863 -999 0.057799 0.284481  
2002-08-26 06:41:02 51°13.682 2°55.854 46.484889 0.057799 0.284485  
2002-08-26 06:41:07 51°13.683 2°55.847 45.361393 0.057799 0.284481  
2002-08-26 06:41:11 51°13.684 2°55.842 45.468472 0.057799 0.284481  
2002-08-26 06:41:16 51°13.685 2°55.835 45.864315 0.057799 0.284485  
2002-08-26 06:41:21 51°13.686 2°55.828 46.182249 0.057799 0.284488  
2002-08-26 06:41:26 51°13.686 2°55.822 46.182249 0.057799 0.284488  
2002-08-26 06:41:31 51°13.686 2°55.815 48.213055 0.057799 0.284492  
2002-08-26 06:41:36 51°13.687 2°55.809 48.855479 0.057799 0.284492  
2002-08-26 06:41:40 51°13.687 2°55.804 46.030989 0.057799 0.284492  
2002-08-26 06:41:46 51°13.687 2°55.797 44.243811 0.057799 0.284488  
2002-08-26 06:41:51 51°13.687 2°55.791 44.41865 0.057799 0.284492  
2002-08-26 06:41:56 51°13.687 2°55.785 44.41865 0.057799 0.284492  
2002-08-26 06:42:00 51°13.687 2°55.781 43.695711 0.057799 0.2845  
2002-08-26 06:42:06 51°13.687 2°55.775 46.295101 0.057799 0.284492  
2002-08-26 06:42:11 51°13.687 2°55.77 47.257244 0.057799 0.284496  
2002-08-26 06:42:16 51°13.687 2°55.766 45.451857 0.057799 0.284504  
2002-08-26 06:42:20 51°13.687 2°55.762 45.374385 0.057799 0.284504  
2002-08-26 06:42:26 51°13.687 2°55.758 45.374385 0.057799 0.284504  
2002-08-26 06:42:31 51°13.687 2°55.755 46.060263 0.057799 0.284504  
2002-08-26 06:42:36 51°13.686 2°55.752 45.527281 0.057799 0.284504  
2002-08-26 06:42:40 51°13.686 2°55.75 45.231075 0.057799 0.284504  
2002-08-26 06:42:46 51°13.686 2°55.747 44.369588 0.057799 0.284508  
2002-08-26 06:42:51 51°13.687 2°55.746 45.042473 0.057799 0.284508  
2002-08-26 06:42:56 51°13.687 2°55.745 45.042473 0.057799 0.284508  
2002-08-26 06:43:00 51°13.686 2°55.744 44.309967 0.057799 0.284512  
2002-08-26 06:43:06 51°13.686 2°55.743 45.051567 0.057799 0.284508  
2002-08-26 06:43:11 51°13.687 2°55.743 44.394432 0.057799 0.284512  
2002-08-26 06:43:16 51°13.687 2°55.743 42.860069 0.057799 0.284516  
2002-08-26 06:43:20 51°13.687 2°55.744 43.727557 0.057799 0.284516  
2002-08-26 06:43:26 51°13.689 2°55.746 43.727557 0.057799 0.284516  
2002-08-26 06:43:31 51°13.69 2°55.747 44.149118 0.057799 0.28452  
2002-08-26 06:43:36 51°13.693 2°55.749 42.585493 0.057799 0.28452  
2002-08-26 06:43:40 51°13.695 2°55.751 43.698741 0.057799 0.284528  
2002-08-26 06:43:46 51°13.699 2°55.752 42.7415 0.057799 0.284532  
2002-08-26 06:43:52 51°13.703 2°55.753 43.770197 0.057799 0.284536  
2002-08-26 06:43:56 51°13.706 2°55.753 43.770197 0.057799 0.284536  
2002-08-26 06:44:00 51°13.71 2°55.753 42.39051 0.057799 0.28454  
2002-08-26 06:44:06 51°13.715 2°55.751 42.878704 0.057799 0.28454  
2002-08-26 06:44:11 51°13.72 2°55.748 44.111726 0.057799 0.284544  
2002-08-26 06:44:16 51°13.725 2°55.745 42.976342 0.057799 0.28454  
2002-08-26 06:44:20 51°13.729 2°55.74 42.923549 0.057799 0.284536  
2002-08-26 06:44:26 51°13.735 2°55.734 42.923549 0.057799 0.284536  
2002-08-26 06:44:31 51°13.741 2°55.727 41.984333 0.057799 0.284524  
2002-08-26 06:44:36 51°13.747 2°55.72 42.590431 0.057799 0.284512  
2002-08-26 06:44:40 51°13.752 2°55.714 45.06902 0.057799 0.284508  
2002-08-26 06:44:46 51°13.76 2°55.704 43.286698 0.057799 0.284512  
2002-08-26 06:44:51 51°13.768 2°55.696 43.717963 0.057799 0.284516  
2002-08-26 06:44:56 51°13.776 2°55.687 43.717963 0.057799 0.284516  
2002-08-26 06:45:02 51°13.786 2°55.677 43.668489 0.057799 0.284524  
2002-08-26 06:45:06 51°13.793 2°55.67 43.327624 0.057799 0.284528  
2002-08-26 06:45:11 51°13.802 2°55.661 42.71604 0.057799 0.284536  
2002-08-26 06:45:16 51°13.811 2°55.653 42.763136 0.057799 0.284544  
2002-08-26 06:45:20 51°13.819 2°55.647 43.911237 0.057799 0.284552  
2002-08-26 06:45:26 51°13.83 2°55.637 43.911237 0.057799 0.284552  
2002-08-26 06:45:31 51°13.84 2°55.628 43.128568 0.057799 0.284556  
2002-08-26 06:45:36 51°13.85 2°55.62 42.537122 0.057799 0.284556  
2002-08-26 06:45:42 51°13.863 2°55.609 43.399695 0.057799 0.28456  
2002-08-26 06:45:46 51°13.871 2°55.602 43.007475 0.057799 0.284556  
2002-08-26 06:45:51 51°13.882 2°55.594 42.887855 0.057799 0.28456  
2002-08-26 06:45:56 51°13.893 2°55.586 42.887855 0.057799 0.28456  
2002-08-26 06:46:00 51°13.902 2°55.58 42.12246 0.057695 0.284036  
2002-08-26 06:46:06 51°13.914 2°55.569 42.469577 0.057695 0.284036  
2002-08-26 06:46:12 51°13.928 2°55.56 43.380013 0.057799 0.28456  
2002-08-26 06:46:16 51°13.937 2°55.553 42.371101 0.057799 0.28456  
2002-08-26 06:46:20 51°13.946 2°55.546 41.373826 0.057799 0.284564  
2002-08-26 06:46:26 51°13.959 2°55.537 41.373826 0.057799 0.284564  
2002-08-26 06:46:31 51°13.97 2°55.529 42.74129 0.057695 0.284044  
2002-08-26 06:46:36 51°13.981 2°55.52 42.233479 0.057799 0.284571  
2002-08-26 06:46:40 51°13.99 2°55.514 42.16602 0.057695 0.284052  
2002-08-26 06:46:46 51°14.004 2°55.503 42.474341 0.057799 0.284571  
2002-08-26 06:46:51 51°14.015 2°55.495 41.336082 0.057799 0.284571  
2002-08-26 06:46:56 51°14.026 2°55.486 41.336082 0.057799 0.284571  
2002-08-26 06:47:00 51°14.035 2°55.48 42.652823 0.057695 0.284044  
2002-08-26 06:47:06 51°14.048 2°55.47 42.412388 0.057695 0.284048  
2002-08-26 06:47:11 51°14.059 2°55.461 40.636427 0.057695 0.284048  
2002-08-26 06:47:16 51°14.07 2°55.452 41.652348 0.057799 0.284575  
2002-08-26 06:47:20 51°14.079 2°55.445 41.796684 0.057695 0.284056  
2002-08-26 06:47:26 51°14.092 2°55.435 41.796684 0.057695 0.284056  
2002-08-26 06:47:31 51°14.103 2°55.426 41.986942 0.057695 0.28406  
2002-08-26 06:47:36 51°14.114 2°55.417 41.925686 0.057695 0.284064  
2002-08-26 06:47:41 51°14.125 2°55.409 42.50732 0.057695 0.284068  
2002-08-26 06:47:46 51°14.136 2°55.4 42.328192 0.057695 0.284068  
2002-08-26 06:47:51 51°14.146 2°55.391 42.399202 0.057695 0.284064  
2002-08-26 06:47:56 51°14.157 2°55.382 42.399202 0.057695 0.284064  
2002-08-26 06:48:00 51°14.166 2°55.375 41.154151 0.057695 0.284072  
2002-08-26 06:48:06 51°14.178 2°55.362 42.479015 0.057799 0.284595  
2002-08-26 06:48:11 51°14.189 2°55.352 41.308352 0.057695 0.284072  
2002-08-26 06:48:16 51°14.199 2°55.341 41.942468 0.057695 0.284072  
2002-08-26 06:48:19 51°14.205 2°55.335 42.054365 0.057695 0.284072  
2002-08-26 06:48:26 51°14.218 2°55.318 42.054365 0.057695 0.284072  
2002-08-26 06:48:32 51°14.23 2°55.303 41.53033 0.057695 0.284076  
2002-08-26 06:48:36 51°14.238 2°55.293 41.715846 0.057695 0.284076  
2002-08-26 06:48:40 51°14.245 2°55.282 41.966589 0.057695 0.284079  
2002-08-26 06:48:46 51°14.256 2°55.266 41.737416 0.057695 0.284079  
2002-08-26 06:48:51 51°14.264 2°55.252 41.279358 0.057695 0.284083  
2002-08-26 06:48:56 51°14.273 2°55.237 41.279358 0.057695 0.284083  
2002-08-26 06:49:00 51°14.279 2°55.225 41.757948 0.057799 0.284611  
2002-08-26 06:49:06 51°14.288 2°55.206 41.613056 0.057695 0.284079  
2002-08-26 06:49:11 51°14.296 2°55.19 41.4103 0.057695 0.284083  
2002-08-26 06:49:16 51°14.303 2°55.174 40.764918 0.057695 0.284083  
2002-08-26 06:49:20 51°14.309 2°55.161 41.23594 0.057695 0.284083  
2002-08-26 06:49:26 51°14.317 2°55.141 41.23594 0.057695 0.284083  
2002-08-26 06:49:31 51°14.324 2°55.124 41.392187 0.057695 0.284083  
2002-08-26 06:49:36 51°14.33 2°55.107 41.165976 0.057695 0.284095  
2002-08-26 06:49:41 51°14.336 2°55.091 41.429324 0.057695 0.284099  
2002-08-26 06:49:46 51°14.342 2°55.074 41.837469 0.057799 0.284623  
2002-08-26 06:49:51 51°14.347 2°55.057 41.887556 0.057695 0.284111  
2002-08-26 06:49:56 51°14.353 2°55.041 41.887556 0.057695 0.284111  
2002-08-26 06:50:01 51°14.358 2°55.023 42.746609 0.057695 0.284095  
2002-08-26 06:50:06 51°14.363 2°55.007 42.11486 0.057695 0.284079  
2002-08-26 06:50:11 51°14.368 2°54.989 41.389926 0.057695 0.284072  
2002-08-26 06:50:16 51°14.372 2°54.972 40.541385 0.057695 0.28406  
2002-08-26 06:50:21 51°14.376 2°54.954 40.220091 0.057695 0.284068  
2002-08-26 06:50:26 51°14.379 2°54.935 40.220091 0.057695 0.284068  
2002-08-26 06:50:31 51°14.381 2°54.915 40.234809 0.057695 0.284079  
2002-08-26 06:50:35 51°14.382 2°54.898 42.176309 0.057695 0.284099  
2002-08-26 06:50:41 51°14.381 2°54.872 42.229155 0.057695 0.284127  
2002-08-26 06:50:46 51°14.379 2°54.849 42.082028 0.057695 0.284119  
2002-08-26 06:50:51 51°14.377 2°54.826 42.550467 0.057695 0.284107  
2002-08-26 06:50:56 51°14.375 2°54.802 42.550467 0.057695 0.284107  
2002-08-26 06:51:00 51°14.373 2°54.783 41.056456 0.057695 0.284087  
2002-08-26 06:51:06 51°14.37 2°54.754 41.606414 0.057695 0.284076  
2002-08-26 06:51:12 51°14.366 2°54.725 42.79513 0.057695 0.284072  
2002-08-26 06:51:16 51°14.364 2°54.705 41.279113 0.057695 0.284076  
2002-08-26 06:51:21 51°14.361 2°54.679 41.498974 0.057695 0.284087  
2002-08-26 06:51:26 51°14.358 2°54.653 41.498974 0.057695 0.284087  
2002-08-26 06:51:31 51°14.354 2°54.627 43.192352 0.057695 0.284111  
2002-08-26 06:51:36 51°14.352 2°54.601 41.876988 0.057695 0.284127  
2002-08-26 06:51:40 51°14.35 2°54.58 42.28644 0.057695 0.284131  
2002-08-26 06:51:46 51°14.345 2°54.549 41.197 0.057695 0.284127  
2002-08-26 06:51:52 51°14.34 2°54.518 41.57402 0.057695 0.284127  
2002-08-26 06:51:57 51°14.334 2°54.492 41.57402 0.057695 0.284127  
2002-08-26 06:52:00 51°14.329 2°54.478 42.981856 0.057695 0.284111  
2002-08-26 06:52:06 51°14.322 2°54.447 42.081361 0.057695 0.284103  
2002-08-26 06:52:11 51°14.315 2°54.422 41.397349 0.057695 0.284107  
2002-08-26 06:52:16 51°14.308 2°54.397 41.992825 0.057695 0.284115  
2002-08-26 06:52:20 51°14.303 2°54.377 42.598831 0.057695 0.284123  
2002-08-26 06:52:26 51°14.294 2°54.347 42.598831 0.057695 0.284123  
2002-08-26 06:52:31 51°14.286 2°54.322 41.508278 0.057695 0.284119  
2002-08-26 06:52:36 51°14.28 2°54.296 42.414561 0.057695 0.284103  
2002-08-26 06:52:40 51°14.274 2°54.276 42.27006 0.057695 0.284091  
2002-08-26 06:52:46 51°14.265 2°54.246 41.956516 0.057695 0.284091  
2002-08-26 06:52:51 51°14.257 2°54.22 42.816692 0.057695 0.284087  
2002-08-26 06:52:56 51°14.251 2°54.195 42.816692 0.057695 0.284087  
2002-08-26 06:53:00 51°14.244 2°54.174 41.923804 0.057695 0.284111  
2002-08-26 06:53:06 51°14.236 2°54.142 42.052668 0.057695 0.284119  
2002-08-26 06:53:11 51°14.228 2°54.116 41.808691 0.057695 0.28417  
2002-08-26 06:53:16 51°14.221 2°54.089 42.078059 0.057695 0.284166  
2002-08-26 06:53:20 51°14.215 2°54.068 42.266795 0.057695 0.284174  
2002-08-26 06:53:26 51°14.206 2°54.037 42.266795 0.057695 0.284174  
2002-08-26 06:53:31 51°14.199 2°54.01 42.952273 0.057695 0.284174  
2002-08-26 06:53:36 51°14.19 2°53.984 41.632552 0.057695 0.28417  
2002-08-26 06:53:40 51°14.186 2°53.961 42.611565 0.057695 0.284123  
2002-08-26 06:53:46 51°14.175 2°53.929 40.990944 0.057695 0.284127  
2002-08-26 06:53:51 51°14.168 2°53.901 41.503184 0.057695 0.284111  
2002-08-26 06:53:56 51°14.16 2°53.873 41.503184 0.057695 0.284111  
2002-08-26 06:54:00 51°14.153 2°53.851 40.18048 0.057695 0.284139  
2002-08-26 06:54:06 51°14.143 2°53.817 40.446479 0.057695 0.284158  
2002-08-26 06:54:11 51°14.136 2°53.787 39.835877 0.057695 0.284154  
2002-08-26 06:54:16 51°14.128 2°53.758 40.130303 0.057695 0.284151  
2002-08-26 06:54:21 51°14.119 2°53.729 39.277894 0.057695 0.284135  
2002-08-26 06:54:26 51°14.112 2°53.699 39.277894 0.057695 0.284135  
2002-08-26 06:54:31 51°14.103 2°53.67 39.748189 0.057695 0.284099  
2002-08-26 06:54:36 51°14.095 2°53.64 40.279658 0.057695 0.284087  
2002-08-26 06:54:41 51°14.085 2°53.61 40.072955 0.057695 0.284111  
2002-08-26 06:54:46 51°14.078 2°53.577 39.396428 0.057695 0.284107  
2002-08-26 06:54:51 51°14.068 2°53.546 40.34871 0.057695 0.284143  
2002-08-26 06:54:56 51°14.061 2°53.514 40.34871 0.057695 0.284143  
2002-08-26 06:55:01 51°14.052 2°53.485 39.013673 0.057695 0.28421  
2002-08-26 06:55:06 51°14.044 2°53.452 38.149188 0.057695 0.28423  
2002-08-26 06:55:11 51°14.036 2°53.42 39.119747 0.057695 0.28423  
2002-08-26 06:55:16 51°14.026 2°53.389 40.307985 0.057695 0.284222  
2002-08-26 06:55:20 51°14.02 2°53.364 39.681309 0.057695 0.284194  
2002-08-26 06:55:26 51°14.009 2°53.327 39.681309 0.057695 0.284194  
2002-08-26 06:55:31 51°14.001 2°53.296 39.514507 0.057695 0.284143  
2002-08-26 06:55:36 51°13.992 2°53.267 39.427943 0.057695 0.284095  
2002-08-26 06:55:42 51°13.982 2°53.231 39.409511 0.057695 0.28406  
2002-08-26 06:55:46 51°13.976 2°53.208 40.889304 0.057695 0.28406  
2002-08-26 06:55:51 51°13.967 2°53.178 41.11551 0.057695 0.284056  
2002-08-26 06:55:56 51°13.959 2°53.149 41.11551 0.057695 0.284056  
2002-08-26 06:56:02 51°13.949 2°53.115 40.489884 0.057695 0.284139  
2002-08-26 06:56:06 51°13.941 2°53.092 39.060268 0.057695 0.284206  
2002-08-26 06:56:11 51°13.935 2°53.061 41.135829 0.057695 0.284218  
2002-08-26 06:56:16 51°13.925 2°53.032 40.627393 0.057695 0.284253  
2002-08-26 06:56:20 51°13.92 2°53.007 41.681607 0.057695 0.284237  
2002-08-26 06:56:26 51°13.91 2°52.971 41.681607 0.057695 0.284237  
2002-08-26 06:56:31 51°13.902 2°52.939 40.305602 0.057695 0.284202  
2002-08-26 06:56:36 51°13.893 2°52.907 40.270646 0.057695 0.284158  
2002-08-26 06:56:40 51°13.886 2°52.881 35.906524 0.057695 0.284135  
2002-08-26 06:56:46 51°13.876 2°52.842 40.942735 0.057695 0.284127  
2002-08-26 06:56:51 51°13.868 2°52.81 39.065015 0.057695 0.284099  
2002-08-26 06:56:56 51°13.858 2°52.779 39.065015 0.057695 0.284099  
2002-08-26 06:57:00 51°13.852 2°52.753 35.218358 0.057695 0.284103  
2002-08-26 06:57:06 51°13.839 2°52.718 40.948878 0.057695 0.284135  
2002-08-26 06:57:11 51°13.832 2°52.686 40.693257 0.057695 0.284119  
2002-08-26 06:57:16 51°13.821 2°52.658 40.56308 0.057695 0.284178  
2002-08-26 06:57:20 51°13.814 2°52.633 40.519344 0.057695 0.284253  
2002-08-26 06:57:26 51°13.803 2°52.596 40.519344 0.057695 0.284253  
2002-08-26 06:57:31 51°13.792 2°52.567 40.495413 0.057695 0.284285  
2002-08-26 06:57:36 51°13.784 2°52.535 39.412641 0.057695 0.284273  
2002-08-26 06:57:40 51°13.776 2°52.51 39.201997 0.057695 0.284269  
2002-08-26 06:57:46 51°13.764 2°52.473 38.960379 0.057695 0.284249  
2002-08-26 06:57:51 51°13.757 2°52.44 39.502222 0.057695 0.284198  
2002-08-26 06:57:56 51°13.745 2°52.41 39.502222 0.057695 0.284198  
2002-08-26 06:58:00 51°13.739 2°52.385 39.995373 0.057695 0.284178  
2002-08-26 06:58:06 51°13.726 2°52.349 41.238143 0.057695 0.284182  
2002-08-26 06:58:11 51°13.717 2°52.318 39.32603 0.057695 0.28419  
2002-08-26 06:58:16 51°13.707 2°52.289 40.697971 0.057695 0.284214  
2002-08-26 06:58:20 51°13.7 2°52.264 39.766545 0.057695 0.284253  
2002-08-26 06:58:26 51°13.687 2°52.229 39.766545 0.057695 0.284253  
2002-08-26 06:58:31 51°13.677 2°52.199 40.041658 0.057695 0.284257  
2002-08-26 06:58:36 51°13.665 2°52.168 39.911061 0.057695 0.284281  
2002-08-26 06:58:40 51°13.659 2°52.142 40.602599 0.057695 0.284277  
2002-08-26 06:58:46 51°13.645 2°52.106 40.817045 0.057695 0.284277  
2002-08-26 06:58:51 51°13.638 2°52.073 38.820055 0.057695 0.284281  
2002-08-26 06:58:55 51°13.631 2°52.048 38.820055 0.057695 0.284281  
2002-08-26 06:59:00 51°13.621 2°52.018 41.204165 0.057695 0.284261  
2002-08-26 06:59:06 51°13.608 2°51.983 39.921418 0.057695 0.284265  
2002-08-26 06:59:11 51°13.601 2°51.951 38.776033 0.057695 0.284233  
2002-08-26 06:59:16 51°13.591 2°51.92 39.557067 0.057695 0.28423  
2002-08-26 06:59:20 51°13.582 2°51.897 38.994769 0.057695 0.284222  
2002-08-26 06:59:26 51°13.572 2°51.858 38.994769 0.057695 0.284222  
2002-08-26 06:59:32 51°13.561 2°51.821 40.203263 0.057695 0.28423  
2002-08-26 06:59:36 51°13.553 2°51.797 40.205402 0.057695 0.28423  
2002-08-26 06:59:40 51°13.546 2°51.771 38.499974 0.057695 0.284222  
2002-08-26 06:59:46 51°13.534 2°51.733 40.865143 0.057695 0.284237  
2002-08-26 06:59:51 51°13.527 2°51.701 39.108816 0.057695 0.284237  
2002-08-26 06:59:55 51°13.518 2°51.677 39.108816 0.057695 0.284237  
2002-08-26 07:00:01 51°13.508 2°51.64 39.231361 0.057695 0.284226  
2002-08-26 07:00:06 51°13.498 2°51.61 40.231896 0.057695 0.284241  
2002-08-26 07:00:11 51°13.489 2°51.579 40.285788 0.057695 0.28423  
2002-08-26 07:00:16 51°13.479 2°51.548 40.605437 0.057695 0.28423  
2002-08-26 07:00:20 51°13.472 2°51.522 22.513621 0.057695 0.284253  
2002-08-26 07:00:26 51°13.46 2°51.485 22.513621 0.057695 0.284253  
2002-08-26 07:00:31 51°13.451 2°51.453 21.466305 0.061023 0.301609  
2002-08-26 07:00:36 51°13.442 2°51.421 21.718847 0.037632 0.184888  
2002-08-26 07:00:42 51°13.431 2°51.385 21.300199 1.392701 8.322042  
2002-08-26 07:00:46 51°13.424 2°51.36 21.207852 2.578024 16.540395  
2002-08-26 07:00:51 51°13.414 2°51.329 21.439745 3.026846 19.883587  
2002-08-26 07:00:56 51°13.405 2°51.298 21.439745 3.026846 19.883587  
2002-08-26 07:01:00 51°13.397 2°51.273 21.427809 3.35799 22.57339  
2002-08-26 07:01:06 51°13.386 2°51.236 21.046403 3.637901 24.820256  
2002-08-26 07:01:12 51°13.373 2°51.2 21.304609 4.119523 28.60465  
2002-08-26 07:01:16 51°13.365 2°51.174 21.270993 4.280454 29.968723  
2002-08-26 07:01:19 51°13.359 2°51.156 21.061671 4.317688 30.334689  
2002-08-26 07:01:26 51°13.344 2°51.113 21.061671 4.317688 30.334689  
2002-08-26 07:01:31 51°13.334 2°51.083 21.05035 4.317477 30.377864  
2002-08-26 07:01:36 51°13.324 2°51.052 21.171365 4.356083 30.714598  
2002-08-26 07:01:41 51°13.314 2°51.022 21.227262 4.366315 30.805169  
2002-08-26 07:01:46 51°13.303 2°50.993 21.127372 4.350176 30.695079  
2002-08-26 07:01:52 51°13.291 2°50.955 21.06203 4.339101 30.618337  
2002-08-26 07:01:56 51°13.281 2°50.933 21.06203 4.339101 30.618337  
2002-08-26 07:02:00 51°13.272 2°50.909 21.312196 4.394479 31.067077  
2002-08-26 07:02:04 51°13.264 2°50.884 20.961428 4.394163 31.072684  
2002-08-26 07:02:11 51°13.248 2°50.843 21.243883 4.392897 31.070796  
2002-08-26 07:02:16 51°13.236 2°50.814 21.146127 4.394374 31.090577  
2002-08-26 07:02:21 51°13.226 2°50.782 21.310369 4.378552 30.971658  
2002-08-26 07:02:26 51°13.215 2°50.754 21.310369 4.378552 30.971658  
2002-08-26 07:02:31 51°13.205 2°50.724 21.50383 4.395957 31.111712  
2002-08-26 07:02:36 51°13.194 2°50.694 21.272702 4.401864 31.164514  
2002-08-26 07:02:40 51°13.186 2°50.67 21.331339 4.401759 31.16826  
2002-08-26 07:02:46 51°13.171 2°50.636 21.232391 4.382244 31.016516  
2002-08-26 07:02:51 51°13.162 2°50.604 21.3631 4.38678 31.053382  
2002-08-26 07:02:56 51°13.15 2°50.576 21.3631 4.38678 31.053382  
2002-08-26 07:03:00 51°13.142 2°50.552 21.198065 4.399649 31.156665  
2002-08-26 07:03:05 51°13.131 2°50.522 21.131036 4.400493 31.164867  
2002-08-26 07:03:11 51°13.118 2°50.487 21.128288 4.408088 31.230054  
2002-08-26 07:03:16 51°13.107 2°50.457 21.130558 4.408615 31.23678  
2002-08-26 07:03:20 51°13.098 2°50.434 21.385364 4.409881 31.249863  
2002-08-26 07:03:26 51°13.084 2°50.399 21.385364 4.409881 31.249863  
2002-08-26 07:03:32 51°13.071 2°50.363 21.418212 4.411358 31.264108  
2002-08-26 07:03:36 51°13.062 2°50.34 21.259745 4.406189 31.224213  
2002-08-26 07:03:40 51°13.052 2°50.316 21.09184 4.398067 31.16095  
2002-08-26 07:03:46 51°13.039 2°50.28 21.292253 4.412519 31.277896  
2002-08-26 07:03:51 51°13.028 2°50.249 21.128209 4.376548 30.99479  
2002-08-26 07:03:56 51°13.017 2°50.22 21.128209 4.376548 30.99479  
2002-08-26 07:04:00 51°13.008 2°50.196 21.027382 4.394586 31.137478  
2002-08-26 07:04:06 51°12.996 2°50.16 21.158429 4.410514 31.265605  
2002-08-26 07:04:11 51°12.983 2°50.133 21.159822 4.420219 31.342466  
2002-08-26 07:04:16 51°12.974 2°50.1 21.255253 4.398806 31.173928  
2002-08-26 07:04:20 51°12.964 2°50.078 21.15608 4.409143 31.255257  
2002-08-26 07:04:26 51°12.952 2°50.04 21.15608 4.409143 31.255257  
2002-08-26 07:04:31 51°12.94 2°50.01 20.86624 4.422435 31.362066  
2002-08-26 07:04:36 51°12.93 2°49.979 21.257797 4.424017 31.375628  
2002-08-26 07:04:40 51°12.92 2°49.956 21.61138 4.42254 31.36444  
2002-08-26 07:04:46 51°12.907 2°49.92 21.094629 4.417582 31.325675  
2002-08-26 07:04:51 51°12.897 2°49.888 21.322563 4.430874 31.429449  
2002-08-26 07:04:56 51°12.885 2°49.859 21.322563 4.430874 31.429449  
2002-08-26 07:05:00 51°12.878 2°49.833 20.994313 4.431718 31.437166  
2002-08-26 07:05:06 51°12.864 2°49.797 21.121239 4.434671 31.461606  
2002-08-26 07:05:11 51°12.853 2°49.766 21.155483 4.441106 31.512621  
2002-08-26 07:05:16 51°12.842 2°49.736 21.083113 4.439313 31.498402  
2002-08-26 07:05:20 51°12.833 2°49.712 21.40655 4.439735 31.501748  
2002-08-26 07:05:26 51°12.82 2°49.674 21.40655 4.439735 31.501748  
2002-08-26 07:05:31 51°12.809 2°49.644 21.112237 4.442161 31.519954  
2002-08-26 07:05:36 51°12.798 2°49.612 20.883945 4.441423 31.515645  
2002-08-26 07:05:40 51°12.789 2°49.588 21.271391 4.439524 31.503167  
2002-08-26 07:05:44 51°12.78 2°49.564 21.009154 4.442583 31.526393  
2002-08-26 07:05:51 51°12.765 2°49.521 21.203556 4.443322 31.536892  
2002-08-26 07:05:56 51°12.753 2°49.493 21.203556 4.443322 31.536892  
2002-08-26 07:05:59 51°12.746 2°49.474 21.171604 4.4429 31.53561  
2002-08-26 07:06:04 51°12.735 2°49.444 21.338923 4.438891 31.504333  
2002-08-26 07:06:11 51°12.72 2°49.401 21.049313 4.436043 31.484322  
2002-08-26 07:06:16 51°12.71 2°49.368 21.081559 4.425494 31.400683  
2002-08-26 07:06:20 51°12.701 2°49.344 21.017611 4.437942 31.501443  
2002-08-26 07:06:26 51°12.688 2°49.307 21.017611 4.437942 31.501443  
2002-08-26 07:06:31 51°12.677 2°49.278 21.150745 4.43963 31.515862  
2002-08-26 07:06:36 51°12.666 2°49.247 21.216364 4.445326 31.558986  
2002-08-26 07:06:40 51°12.657 2°49.222 20.988527 4.444904 31.555122  
2002-08-26 07:06:46 51°12.645 2°49.187 21.183901 4.44174 31.530018  
2002-08-26 07:06:51 51°12.634 2°49.155 21.054735 4.443744 31.543852  
2002-08-26 07:06:56 51°12.623 2°49.126 21.054735 4.443744 31.543852  
2002-08-26 07:07:00 51°12.615 2°49.102 21.055931 4.421802 31.368851  
2002-08-26 07:07:04 51°12.605 2°49.079 21.122075 4.445959 31.558842  
2002-08-26 07:07:11 51°12.59 2°49.036 20.956838 4.419903 31.352777  
2002-08-26 07:07:16 51°12.579 2°49.005 20.988687 4.446487 31.56251  
2002-08-26 07:07:19 51°12.572 2°48.988 20.890299 4.423068 31.377344  
2002-08-26 07:07:24 51°12.562 2°48.957 20.890299 4.423068 31.377344  
2002-08-26 07:07:31 51°12.546 2°48.916 21.348254 4.421485 31.363264  
2002-08-26 07:07:36 51°12.537 2°48.884 21.280174 4.445432 31.55311  
2002-08-26 07:07:40 51°12.527 2°48.861 21.081599 4.423173 31.37664  
2002-08-26 07:07:46 51°12.515 2°48.825 21.04712 4.43119 31.441214  
2002-08-26 07:07:51 51°12.502 2°48.797 21.211432 4.435515 31.475504  
2002-08-26 07:07:56 51°12.493 2°48.765 21.211432 4.435515 31.475504  
2002-08-26 07:08:00 51°12.483 2°48.742 20.952167 4.438891 31.504848  
2002-08-26 07:08:07 51°12.467 2°48.7 21.111759 4.435937 31.480395  
2002-08-26 07:08:11 51°12.459 2°48.675 21.045326 4.443005 31.536962  
2002-08-26 07:08:16 51°12.448 2°48.647 20.883506 4.438153 31.501054  
2002-08-26 07:08:20 51°12.439 2°48.621 21.043412 4.455348 31.636952  
2002-08-26 07:08:26 51°12.426 2°48.584 21.043412 4.455348 31.636952  
2002-08-26 07:08:31 51°12.415 2°48.552 21.041817 4.457247 31.653058  
2002-08-26 07:08:36 51°12.405 2°48.523 21.238913 4.460095 31.675146  
2002-08-26 07:08:41 51°12.393 2°48.494 21.49654 4.452183 31.614425  
2002-08-26 07:08:46 51°12.384 2°48.464 21.070042 4.462416 31.694606  
2002-08-26 07:08:51 51°12.373 2°48.433 21.068208 4.447647 31.578432  
2002-08-26 07:08:56 51°12.362 2°48.403 21.068208 4.447647 31.578432  
2002-08-26 07:09:00 51°12.354 2°48.379 21.133863 4.462733 31.697637  
2002-08-26 07:09:04 51°12.345 2°48.356 21.034999 4.460201 31.679613  
2002-08-26 07:09:11 51°12.33 2°48.315 21.262806 4.46537 31.72169  
2002-08-26 07:09:16 51°12.32 2°48.284 21.228494 4.467163 31.736969  
2002-08-26 07:09:20 51°12.31 2°48.263 21.227341 4.468007 31.744711  
2002-08-26 07:09:26 51°12.298 2°48.227 21.227341 4.468007 31.744711  
2002-08-26 07:09:31 51°12.287 2°48.198 21.129483 4.46653 31.73558  
2002-08-26 07:09:36 51°12.277 2°48.169 21.128129 4.469906 31.761871  
2002-08-26 07:09:40 51°12.269 2°48.146 20.994473 4.471278 31.773804  
2002-08-26 07:09:46 51°12.257 2°48.111 21.027462 4.467269 31.743004  
2002-08-26 07:09:51 51°12.246 2°48.082 21.189989 4.460412 31.689069  
2002-08-26 07:09:56 51°12.236 2°48.054 21.189989 4.460412 31.689069  
2002-08-26 07:10:00 51°12.227 2°48.031 20.959991 4.471067 31.77421  
2002-08-26 07:10:05 51°12.217 2°48.001 21.160459 4.471489 31.778082  
2002-08-26 07:10:11 51°12.205 2°47.966 20.927131 4.474126 31.800596  
2002-08-26 07:10:16 51°12.194 2°47.937 21.283313 4.481194 31.858326  
2002-08-26 07:10:20 51°12.186 2°47.913 21.022875 4.472438 31.789789  
2002-08-26 07:10:24 51°12.179 2°47.89 21.022875 4.472438 31.789789  
2002-08-26 07:10:31 51°12.164 2°47.85 21.084149 4.482566 31.87027  
2002-08-26 07:10:36 51°12.155 2°47.82 21.050987 4.47919 31.842918  
2002-08-26 07:10:39 51°12.148 2°47.804 21.181115 4.484465 31.885886  
2002-08-26 07:10:44 51°12.138 2°47.775 20.821098 4.489001 31.921948  
2002-08-26 07:10:51 51°12.124 2°47.737 21.048914 4.491006 31.938931  
2002-08-26 07:10:56 51°12.113 2°47.708 21.048914 4.491006 31.938931  
2002-08-26 07:11:01 51°12.103 2°47.679 20.949692 4.491111 31.941339  
2002-08-26 07:11:06 51°12.093 2°47.653 21.18012 4.49185 31.947735  
2002-08-26 07:11:11 51°12.082 2°47.625 21.079806 4.493643 31.964091  
2002-08-26 07:11:16 51°12.072 2°47.597 21.079646 4.492377 31.95507  
2002-08-26 07:11:20 51°12.063 2°47.574 21.079367 4.495437 31.979927  
2002-08-26 07:11:26 51°12.051 2°47.54 21.079367 4.495437 31.979927  
2002-08-26 07:11:31 51°12.04 2°47.513 21.078889 4.496281 31.987688  
2002-08-26 07:11:36 51°12.03 2°47.484 21.080802 4.498285 32.003633  
2002-08-26 07:11:40 51°12.022 2°47.462 21.111162 4.501978 32.033533  
2002-08-26 07:11:46 51°12.009 2°47.429 21.210199 4.504721 32.055358  
2002-08-26 07:11:51 51°12 2°47.4 21.143619 4.505143 32.058716  
2002-08-26 07:11:56 51°11.989 2°47.371 21.143619 4.505143 32.058716  
2002-08-26 07:12:00 51°11.981 2°47.348 21.338328 4.509257 32.092509  
2002-08-26 07:12:03 51°11.975 2°47.331 21.043931 4.511261 32.107411  
2002-08-26 07:12:11 51°11.959 2°47.285 21.011946 4.513055 32.122738  
2002-08-26 07:12:16 51°11.948 2°47.257 20.94542 4.514426 32.133655  
2002-08-26 07:12:20 51°11.941 2°47.233 21.208846 4.515904 32.146466  
2002-08-26 07:12:26 51°11.928 2°47.198 21.208846 4.515904 32.146466  
2002-08-26 07:12:31 51°11.919 2°47.169 21.076538 4.515482 32.143107  
2002-08-26 07:12:36 51°11.909 2°47.14 21.076538 4.518858 32.169984  
2002-08-26 07:12:40 51°11.901 2°47.117 21.273656 4.519807 32.177544  
2002-08-26 07:12:47 51°11.887 2°47.077 21.077255 4.520968 32.187839  
2002-08-26 07:12:51 51°11.878 2°47.055 21.009912 4.522234 32.196865  
2002-08-26 07:12:56 51°11.869 2°47.025 21.009912 4.522234 32.196865  
2002-08-26 07:13:00 51°11.861 2°47.002 21.011428 4.5235 32.20853  
2002-08-26 07:13:04 51°11.853 2°46.98 20.87939 4.524238 32.212827  
2002-08-26 07:13:11 51°11.838 2°46.941 21.042336 4.526243 32.229318  
2002-08-26 07:13:16 51°11.828 2°46.913 20.944302 4.526559 32.232367  
2002-08-26 07:13:19 51°11.821 2°46.896 21.204829 4.528353 32.247181  
2002-08-26 07:13:26 51°11.807 2°46.857 21.204829 4.528353 32.247181  
2002-08-26 07:13:31 51°11.796 2°46.83 21.203197 4.52772 32.24161  
2002-08-26 07:13:36 51°11.787 2°46.8 20.941307 4.527087 32.237097  
2002-08-26 07:13:41 51°11.776 2°46.772 20.972924 4.52888 32.251911  
2002-08-26 07:13:46 51°11.766 2°46.743 21.171564 4.530252 32.262836  
2002-08-26 07:13:51 51°11.757 2°46.715 20.940109 4.532256 32.279333  
2002-08-26 07:13:56 51°11.746 2°46.687 20.940109 4.532256 32.279333  
2002-08-26 07:14:00 51°11.738 2°46.664 20.778048 4.533944 32.292781  
2002-08-26 07:14:04 51°11.729 2°46.642 20.808458 4.535316 32.305296  
2002-08-26 07:14:11 51°11.716 2°46.601 20.743301 4.535316 32.304767  
2002-08-26 07:14:16 51°11.705 2°46.573 20.775286 4.535421 32.306667  
2002-08-26 07:14:19 51°11.699 2°46.555 20.841813 4.536371 32.314232  
2002-08-26 07:14:24 51°11.688 2°46.527 20.841813 4.536371 32.314232  
2002-08-26 07:14:31 51°11.674 2°46.486 21.03791 4.536476 32.315073  
2002-08-26 07:14:36 51°11.665 2°46.457 21.003809 4.537426 32.323169  
2002-08-26 07:14:40 51°11.655 2°46.437 20.807858 4.537953 32.327373  
2002-08-26 07:14:46 51°11.644 2°46.401 20.873714 4.540064 32.344718  
2002-08-26 07:14:51 51°11.632 2°46.373 20.740658 4.540908 32.351444  
2002-08-26 07:14:56 51°11.622 2°46.344 20.740658 4.540908 32.351444  
2002-08-26 07:15:01 51°11.611 2°46.317 20.774166 4.53827 32.329895  
2002-08-26 07:15:03 51°11.607 2°46.306 20.938951 4.541857 32.359543  
2002-08-26 07:15:11 51°11.59 2°46.26 21.03456 4.542912 32.367951  
2002-08-26 07:15:16 51°11.58 2°46.232 20.675439 4.542701 32.367331  
2002-08-26 07:15:20 51°11.571 2°46.211 20.836655 4.543229 32.370474  
2002-08-26 07:15:26 51°11.559 2°46.176 20.836655 4.543229 32.370474  
2002-08-26 07:15:31 51°11.547 2°46.149 20.737815 4.542807 32.368172  
2002-08-26 07:15:36 51°11.537 2°46.121 20.934079 4.544917 32.384991  
2002-08-26 07:15:40 51°11.527 2°46.1 20.803057 4.545655 32.390347  
2002-08-26 07:15:46 51°11.515 2°46.065 20.966777 4.54555 32.390037  
2002-08-26 07:15:51 51°11.502 2°46.04 21.162807 4.544811 32.385212  
2002-08-26 07:15:56 51°11.492 2°46.011 21.162807 4.544811 32.385212  
2002-08-26 07:16:00 51°11.482 2°45.991 21.097099 4.541646 32.357861  
2002-08-26 07:16:04 51°11.474 2°45.967 21.065458 4.542912 32.371136  
2002-08-26 07:16:11 51°11.458 2°45.93 21.096701 4.535316 32.310593  
2002-08-26 07:16:16 51°11.447 2°45.902 20.901207 4.527825 32.250908  
2002-08-26 07:16:21 51°11.435 2°45.877 20.966139 4.534155 32.301345  
2002-08-26 07:16:26 51°11.425 2°45.847 20.966139 4.534155 32.301345  
2002-08-26 07:16:31 51°11.412 2°45.821 21.263362 4.535211 32.309752  
2002-08-26 07:16:36 51°11.403 2°45.792 20.838455 4.535422 32.311964  
2002-08-26 07:16:39 51°11.395 2°45.777 21.131315 4.548293 32.414562  
2002-08-26 07:16:46 51°11.381 2°45.738 21.035079 4.537848 32.331832  
2002-08-26 07:16:51 51°11.368 2°45.712 20.838734 4.542596 32.369674  
2002-08-26 07:16:56 51°11.357 2°45.683 20.838734 4.542596 32.369674  
2002-08-26 07:17:00 51°11.348 2°45.66 21.131952 4.549242 32.42107  
2002-08-26 07:17:03 51°11.342 2°45.644 20.904163 4.548293 32.412968  
2002-08-26 07:17:11 51°11.324 2°45.6 20.968972 4.538903 32.33812  
2002-08-26 07:17:16 51°11.311 2°45.574 21.100087 4.550403 32.42926  
2002-08-26 07:17:20 51°11.302 2°45.553 20.871436 4.551458 32.438204  
2002-08-26 07:17:26 51°11.288 2°45.521 20.871436 4.551458 32.438204  
2002-08-26 07:17:31 51°11.277 2°45.492 21.034042 4.54766 32.40739  
2002-08-26 07:17:36 51°11.265 2°45.467 21.000457 4.551036 32.434839  
2002-08-26 07:17:39 51°11.258 2°45.451 21.000816 4.549981 32.426427  
2002-08-26 07:17:43 51°11.25 2°45.429 21.06494 4.55072 32.432315  
2002-08-26 07:17:51 51°11.231 2°45.386 20.902285 4.552513 32.447148  
2002-08-26 07:17:56 51°11.22 2°45.36 20.902285 4.552513 32.447148  
2002-08-26 07:18:01 51°11.208 2°45.333 20.932522 4.55399 32.457862  
2002-08-26 07:18:07 51°11.196 2°45.3 21.290545 4.553146 32.451132  
2002-08-26 07:18:11 51°11.186 2°45.278 20.929567 4.553146 32.452196  
2002-08-26 07:18:16 51°11.176 2°45.252 20.930485 4.54882 32.418768  
2002-08-26 07:18:20 51°11.166 2°45.232 21.385047 4.554518 32.463666  
2002-08-26 07:18:24 51°11.158 2°45.209 21.385047 4.554518 32.463666  
2002-08-26 07:18:31 51°11.142 2°45.171 20.992198 4.556733 32.481868  
2002-08-26 07:18:36 51°11.131 2°45.145 21.058602 4.560954 32.516062  
2002-08-26 07:18:42 51°11.118 2°45.115 21.252272 4.550614 32.434133  
2002-08-26 07:18:46 51°11.11 2°45.092 20.956239 4.560215 32.512837  
2002-08-26 07:18:51 51°11.098 2°45.066 21.087616 4.563908 32.541763  
2002-08-26 07:18:56 51°11.088 2°45.036 21.087616 4.563908 32.541763  
2002-08-26 07:19:01 51°11.076 2°45.012 20.860084 4.565701 32.557141  
2002-08-26 07:19:06 51°11.065 2°44.986 20.95584 4.564224 32.546423  
2002-08-26 07:19:11 51°11.054 2°44.96 21.085943 4.56433 32.546731  
2002-08-26 07:19:16 51°11.042 2°44.933 21.018368 4.558949 32.505403  
2002-08-26 07:19:20 51°11.034 2°44.911 20.920661 4.561798 32.528129  
2002-08-26 07:19:26 51°11.02 2°44.881 20.920661 4.561798 32.528129  
2002-08-26 07:19:31 51°11.009 2°44.856 21.278743 4.558949 32.505403  
2002-08-26 07:19:36 51°10.996 2°44.829 21.048595 4.565702 32.561413  
2002-08-26 07:19:39 51°10.991 2°44.812 21.081041 4.568339 32.582463  
2002-08-26 07:19:47 51°10.972 2°44.771 21.048237 4.568023 32.579937  
2002-08-26 07:19:51 51°10.967 2°44.748 20.852888 4.568867 32.588812  
2002-08-26 07:19:56 51°10.954 2°44.724 20.852888 4.568867 32.588812  
2002-08-26 07:20:01 51°10.944 2°44.697 21.113313 4.569816 32.596391  
2002-08-26 07:20:06 51°10.933 2°44.671 21.01434 4.570449 32.601979  
2002-08-26 07:20:11 51°10.921 2°44.645 21.013023 4.573826 32.629465  
2002-08-26 07:20:16 51°10.911 2°44.619 21.043093 4.573404 32.626096  
2002-08-26 07:20:19 51°10.903 2°44.605 21.17228 4.573826 32.630001  
2002-08-26 07:20:26 51°10.888 2°44.568 21.17228 4.573826 32.630001  
2002-08-26 07:20:31 51°10.877 2°44.543 20.876472 4.574037 32.631685  
2002-08-26 07:20:36 51°10.865 2°44.517 21.204311 4.574459 32.63559  
2002-08-26 07:20:41 51°10.854 2°44.49 21.03783 4.575936 32.648455  
2002-08-26 07:20:46 51°10.843 2°44.464 21.068686 4.576885 32.657644  
2002-08-26 07:20:51 51°10.831 2°44.439 21.262686 4.577835 32.665763  
2002-08-26 07:20:56 51°10.821 2°44.412 21.262686 4.577835 32.665763  
2002-08-26 07:21:00 51°10.812 2°44.392 20.901806 4.578363 32.671048  
2002-08-26 07:21:04 51°10.805 2°44.37 20.967655 4.578152 32.669899  
2002-08-26 07:21:11 51°10.788 2°44.335 20.963344 4.578679 32.676257  
2002-08-26 07:21:16 51°10.778 2°44.308 20.994034 4.578996 32.679321  
2002-08-26 07:21:20 51°10.768 2°44.289 21.024869 4.579523 32.684608  
2002-08-26 07:21:27 51°10.753 2°44.252 21.024869 4.579523 32.684608  
2002-08-26 07:21:31 51°10.743 2°44.232 20.892656 4.579734 32.687903  
2002-08-26 07:21:36 51°10.733 2°44.207 21.153333 4.579945 32.690662  
2002-08-26 07:21:41 51°10.72 2°44.183 20.887222 4.579629 32.687597  
2002-08-26 07:21:44 51°10.715 2°44.166 20.952207 4.580367 32.695643  
2002-08-26 07:21:51 51°10.698 2°44.133 21.145928 4.580789 32.700625  
2002-08-26 07:21:56 51°10.689 2°44.105 21.145928 4.580789 32.700625  
2002-08-26 07:22:01 51°10.678 2°44.081 21.174549 4.580895 32.704153  
2002-08-26 07:22:06 51°10.665 2°44.056 20.880349 4.580895 32.70469  
2002-08-26 07:22:11 51°10.657 2°44.028 20.97464 4.580895 32.705227  
2002-08-26 07:22:16 51°10.646 2°44.004 20.973483 4.581634 32.713276  
2002-08-26 07:22:21 51°10.635 2°43.978 21.072632 4.581528 32.714582  
2002-08-26 07:22:26 51°10.626 2°43.951 21.072632 4.581528 32.714582  
2002-08-26 07:22:31 51°10.614 2°43.926 20.938073 4.582478 32.722171  
2002-08-26 07:22:36 51°10.605 2°43.898 21.070719 4.583533 32.733828  
2002-08-26 07:22:40 51°10.596 2°43.877 21.03464 4.584377 32.741113  
2002-08-26 07:22:46 51°10.585 2°43.846 21.001215 4.585116 32.74863  
2002-08-26 07:22:51 51°10.575 2°43.819 21.263283 4.586593 32.762053  
2002-08-26 07:22:56 51°10.565 2°43.792 21.263283 4.586593 32.762053  
2002-08-26 07:23:01 51°10.554 2°43.766 20.899968 4.587753 32.772408  
2002-08-26 07:23:06 51°10.545 2°43.739 21.063305 4.589125 32.783375  
2002-08-26 07:23:11 51°10.535 2°43.713 21.09427 4.589864 32.790897  
2002-08-26 07:23:16 51°10.525 2°43.687 20.833216 4.591235 32.802943  
2002-08-26 07:23:20 51°10.517 2°43.665 20.930006 4.592185 32.810537  
2002-08-26 07:23:26 51°10.504 2°43.633 20.930006 4.592185 32.810537  
2002-08-26 07:23:31 51°10.494 2°43.607 21.059319 4.593345 32.820358  
2002-08-26 07:23:36 51°10.484 2°43.581 21.058402 4.594928 32.834635  
2002-08-26 07:23:40 51°10.476 2°43.56 20.959552 4.596827 32.850366  
2002-08-26 07:23:47 51°10.462 2°43.524 20.863282 4.59841 32.863026  
2002-08-26 07:23:51 51°10.454 2°43.503 20.894574 4.600837 32.884062  
2002-08-26 07:23:56 51°10.443 2°43.477 20.894574 4.600837 32.884062  
2002-08-26 07:24:00 51°10.436 2°43.454 20.798176 4.603686 32.907397  
2002-08-26 07:24:04 51°10.428 2°43.434 20.96047 4.606323 32.929587  
2002-08-26 07:24:11 51°10.415 2°43.396 20.897851 4.609278 32.95269  
2002-08-26 07:24:16 51°10.408 2°43.367 20.893935 4.61181 32.974043  
2002-08-26 07:24:20 51°10.399 2°43.346 21.28522 4.613815 32.990091  
2002-08-26 07:24:26 51°10.39 2°43.312 21.28522 4.613815 32.990091  
2002-08-26 07:24:31 51°10.382 2°43.283 20.989884 4.616664 33.012898  
2002-08-26 07:24:36 51°10.374 2°43.256 21.121717 4.617508 33.020199  
2002-08-26 07:24:41 51°10.365 2°43.229 20.988208 4.619301 33.034018  
2002-08-26 07:24:46 51°10.357 2°43.2 21.085504 4.620357 33.043552  
2002-08-26 07:24:51 51°10.347 2°43.173 21.14983 4.621834 33.055381  
2002-08-26 07:24:56 51°10.341 2°43.145 21.14983 4.621834 33.055381  
2002-08-26 07:25:00 51°10.332 2°43.123 20.950969 4.622783 33.063529  
2002-08-26 07:25:06 51°10.324 2°43.088 20.788253 4.623839 33.071979  
2002-08-26 07:25:11 51°10.315 2°43.06 21.114667 4.62521 33.082421  
2002-08-26 07:25:16 51°10.309 2°43.031 20.856007 4.625421 33.086287  
2002-08-26 07:25:21 51°10.301 2°43.003 20.788413 4.62616 33.093291  
2002-08-26 07:25:26 51°10.293 2°42.974 20.788413 4.62616 33.093291  
2002-08-26 07:25:31 51°10.286 2°42.945 20.918743 4.626899 33.099751  
2002-08-26 07:25:36 51°10.278 2°42.918 20.687101 4.627321 33.10422  
2002-08-26 07:25:40 51°10.273 2°42.894 20.75263 4.628059 33.110137  
2002-08-26 07:25:46 51°10.263 2°42.86 21.078132 4.627637 33.106756  
2002-08-26 07:25:51 51°10.255 2°42.832 20.65271 4.627743 33.108146  
2002-08-26 07:25:56 51°10.248 2°42.803 20.65271 4.627743 33.108146  
2002-08-26 07:26:00 51°10.241 2°42.782 20.880748 4.628165 33.111527  
2002-08-26 07:26:04 51°10.235 2°42.758 20.815938 4.62827 33.112917  
2002-08-26 07:26:11 51°10.224 2°42.719 20.783611 4.629325 33.121914  
2002-08-26 07:26:16 51°10.219 2°42.688 20.715787 4.629325 33.123004  
2002-08-26 07:26:19 51°10.215 2°42.671 20.814018 4.629325 33.124638  
2002-08-26 07:26:23 51°10.209 2°42.649 20.814018 4.629325 33.124638  
2002-08-26 07:26:31 51°10.199 2°42.602 20.847251 4.629537 33.126328  
2002-08-26 07:26:36 51°10.191 2°42.573 20.813098 4.630064 33.131645  
2002-08-26 07:26:42 51°10.183 2°42.539 21.107776 4.630486 33.133393  
2002-08-26 07:26:46 51°10.177 2°42.516 20.943224 4.630908 33.138409  
2002-08-26 07:26:52 51°10.169 2°42.482 21.173116 4.63228 33.149946  
2002-08-26 07:26:56 51°10.163 2°42.459 21.173116 4.63228 33.149946  
2002-08-26 07:27:00 51°10.157 2°42.436 20.812098 4.632702 33.153874  
2002-08-26 07:27:04 51°10.151 2°42.413 21.20272 4.633441 33.160884  
2002-08-26 07:27:11 51°10.141 2°42.373 21.041658 4.634496 33.168795  
2002-08-26 07:27:16 51°10.135 2°42.344 20.909676 4.634707 33.170486  
2002-08-26 07:27:22 51°10.125 2°42.31 21.269642 4.63439 33.16904  
2002-08-26 07:27:26 51°10.121 2°42.287 21.269642 4.63439 33.16904  
2002-08-26 07:27:31 51°10.113 2°42.258 20.813658 4.635445 33.176951  
2002-08-26 07:27:36 51°10.107 2°42.23 21.072473 4.635762 33.18058  
2002-08-26 07:27:40 51°10.102 2°42.207 20.90692 4.636923 33.188792  
2002-08-26 07:27:46 51°10.095 2°42.171 20.841733 4.636923 33.189883  
2002-08-26 07:27:51 51°10.09 2°42.142 20.972166 4.637134 33.191029  
2002-08-26 07:27:56 51°10.084 2°42.113 20.972166 4.637134 33.191029  
2002-08-26 07:28:01 51°10.078 2°42.083 20.972046 4.637239 33.191875  
2002-08-26 07:28:06 51°10.073 2°42.054 21.005484 4.637872 33.197496  
2002-08-26 07:28:11 51°10.067 2°42.024 20.941507 4.638822 33.205108  
2002-08-26 07:28:16 51°10.061 2°41.996 20.907079 4.639244 33.21013  
2002-08-26 07:28:20 51°10.057 2°41.972 20.873195 4.640299 33.216404  
2002-08-26 07:28:27 51°10.049 2°41.932 20.873195 4.640299 33.216404  
2002-08-26 07:28:31 51°10.042 2°41.91 20.938113 4.64146 33.226802  
2002-08-26 07:28:36 51°10.037 2°41.88 21.264515 4.642198 33.234363  
2002-08-26 07:28:40 51°10.031 2°41.857 20.774366 4.642832 33.239439  
2002-08-26 07:28:46 51°10.023 2°41.823 20.808618 4.643043 33.240585  
2002-08-26 07:28:51 51°10.017 2°41.794 20.874194 4.644098 33.249045  
2002-08-26 07:28:56 51°10.011 2°41.765 20.874194 4.644098 33.249045  
2002-08-26 07:28:59 51°10.008 2°41.747 20.971407 4.645153 33.258053  
2002-08-26 07:29:06 51°10.002 2°41.706 21.004247 4.646103 33.266762  
2002-08-26 07:29:11 51°9.995 2°41.677 20.872196 4.647052 33.274378  
2002-08-26 07:29:16 51°9.993 2°41.646 20.971966 4.648424 33.284831  
2002-08-26 07:29:20 51°9.99 2°41.622 20.870517 4.648213 33.284234  
2002-08-26 07:29:26 51°9.986 2°41.587 20.870517 4.648213 33.284234  
2002-08-26 07:29:32 51°9.981 2°41.551 20.903324 4.649057 33.289909  
2002-08-26 07:29:36 51°9.978 2°41.527 20.901886 4.649585 33.29414  
2002-08-26 07:29:40 51°9.975 2°41.503 20.999899 4.650323 33.299516  
2002-08-26 07:29:44 51°9.972 2°41.479 20.837015 4.651167 33.306286  
2002-08-26 07:29:51 51°9.967 2°41.437 20.835575 4.65064 33.303151  
2002-08-26 07:29:56 51°9.962 2°41.407 20.835575 4.65064 33.303151  
2002-08-26 07:30:00 51°9.961 2°41.382 20.867639 4.650851 33.305391  
2002-08-26 07:30:06 51°9.956 2°41.346 21.161733 4.651062 33.30818  
2002-08-26 07:30:12 51°9.953 2°41.31 21.032327 4.651484 33.312113  
2002-08-26 07:30:16 51°9.949 2°41.286 20.901806 4.65159 33.313508  
2002-08-26 07:30:20 51°9.947 2°41.262 21.066614 4.652117 33.318288  
2002-08-26 07:30:26 51°9.942 2°41.225 21.066614 4.652117 33.318288  
2002-08-26 07:30:31 51°9.941 2°41.195 21.29416 4.652645 33.321972  
2002-08-26 07:30:36 51°9.935 2°41.165 21.067371 4.65275 33.323367  
2002-08-26 07:30:40 51°9.933 2°41.14 21.036753 4.653911 33.332678  
2002-08-26 07:30:46 51°9.929 2°41.103 21.005684 4.654544 33.337209  
2002-08-26 07:30:51 51°9.924 2°41.074 21.10443 4.655494 33.344827  
2002-08-26 07:30:56 51°9.921 2°41.043 21.10443 4.655494 33.344827  
2002-08-26 07:31:00 51°9.917 2°41.018 20.779169 4.655494 33.34373  
2002-08-26 07:31:04 51°9.914 2°40.994 20.844652 4.652434 33.319183  
2002-08-26 07:31:11 51°9.909 2°40.952 21.20447 4.654122 33.332177  
2002-08-26 07:31:16 51°9.905 2°40.921 21.008915 4.653067 33.323165  
2002-08-26 07:31:20 51°9.902 2°40.896 21.074306 4.656127 33.345518  
2002-08-26 07:31:25 51°9.899 2°40.865 21.074306 4.656127 33.345518  
2002-08-26 07:31:31 51°9.896 2°40.827 21.040581 4.653489 33.324358  
2002-08-26 07:31:36 51°9.892 2°40.796 21.042734 4.654649 33.332571  
2002-08-26 07:31:39 51°9.89 2°40.778 20.976436 4.654333 33.329484  
2002-08-26 07:31:43 51°9.886 2°40.753 21.007678 4.658343 33.361099  
2002-08-26 07:31:51 51°9.88 2°40.703 20.908517 4.655599 33.339092  
2002-08-26 07:31:56 51°9.876 2°40.672 20.908517 4.655599 33.339092  
2002-08-26 07:32:01 51°9.871 2°40.641 21.04098 4.65792 33.356615  
2002-08-26 07:32:06 51°9.867 2°40.61 21.007758 4.660664 33.378623  
2002-08-26 07:32:11 51°9.863 2°40.579 20.908158 4.661086 33.382559  
2002-08-26 07:32:16 51°9.858 2°40.548 21.071476 4.661192 33.383954  
2002-08-26 07:32:20 51°9.855 2°40.522 21.136292 4.661825 33.388484  
2002-08-26 07:32:26 51°9.851 2°40.484 21.136292 4.661825 33.388484  
2002-08-26 07:32:32 51°9.847 2°40.447 20.972644 4.66193 33.38988  
2002-08-26 07:32:36 51°9.845 2°40.421 21.297816 4.661825 33.390132  
2002-08-26 07:32:40 51°9.842 2°40.396 20.940389 4.662669 33.395257  
2002-08-26 07:32:44 51°9.839 2°40.371 21.103075 4.662669 33.396905  
2002-08-26 07:32:51 51°9.835 2°40.326 21.102836 4.663196 33.402237  
2002-08-26 07:32:56 51°9.83 2°40.295 21.102836 4.663196 33.402237  
2002-08-26 07:33:00 51°9.828 2°40.269 20.973163 4.663513 33.403678  
2002-08-26 07:33:06 51°9.823 2°40.232 21.039744 4.663724 33.405921  
2002-08-26 07:33:11 51°9.821 2°40.199 20.90692 4.664146 33.409308  
2002-08-26 07:33:16 51°9.817 2°40.168 21.036394 4.664885 33.415784  
2002-08-26 07:33:19 51°9.814 2°40.149 21.102995 4.664357 33.411551  
2002-08-26 07:33:24 51°9.81 2°40.117 21.102995 4.664357 33.411551  
2002-08-26 07:33:31 51°9.806 2°40.072 20.971048 4.664779 33.414937  
2002-08-26 07:33:36 51°9.801 2°40.04 20.969811 4.664779 33.414937  
2002-08-26 07:33:42 51°9.797 2°40.002 20.969372 4.665096 33.416928  
2002-08-26 07:33:46 51°9.795 2°39.976 21.066135 4.665729 33.423108  
2002-08-26 07:33:51 51°9.79 2°39.945 21.032287 4.666362 33.427639  
2002-08-26 07:33:56 51°9.788 2°39.913 21.032287 4.666362 33.427639  
2002-08-26 07:34:00 51°9.783 2°39.888 21.130279 4.666573 33.428782  
2002-08-26 07:34:06 51°9.781 2°39.849 20.968334 4.667101 33.433016  
2002-08-26 07:34:11 51°9.777 2°39.816 21.292094 4.667628 33.4389  
2002-08-26 07:34:16 51°9.774 2°39.784 20.966378 4.667734 33.440297  
2002-08-26 07:34:20 51°9.771 2°39.759 20.900967 4.667945 33.443091  
2002-08-26 07:34:26 51°9.766 2°39.72 20.900967 4.667945 33.443091  
2002-08-26 07:34:31 51°9.762 2°39.688 20.801137 4.668261 33.446182  
2002-08-26 07:34:36 51°9.76 2°39.656 21.030971 4.66805 33.444489  
2002-08-26 07:34:40 51°9.756 2°39.63 20.900647 4.667523 33.441354  
2002-08-26 07:34:47 51°9.753 2°39.585 20.834136 4.668683 33.44957  
2002-08-26 07:34:51 51°9.749 2°39.559 20.833736 4.669528 33.457997  
2002-08-26 07:34:56 51°9.746 2°39.526 20.833736 4.669528 33.457997  
2002-08-26 07:35:01 51°9.743 2°39.494 21.062867 4.669739 33.45859  
2002-08-26 07:35:06 51°9.738 2°39.462 21.029894 4.670266 33.463926  
2002-08-26 07:35:11 51°9.737 2°39.429 21.027701 4.670055 33.461682  
2002-08-26 07:35:16 51°9.731 2°39.398 20.896692 4.670583 33.467018  
2002-08-26 07:35:20 51°9.73 2°39.371 21.09192 4.670583 33.467018  
2002-08-26 07:35:26 51°9.724 2°39.333 21.09192 4.670583 33.467018  
2002-08-26 07:35:32 51°9.72 2°39.294 21.025109 4.670583 33.467569  
2002-08-26 07:35:36 51°9.718 2°39.268 20.959153 4.671321 33.474049  
2002-08-26 07:35:40 51°9.714 2°39.242 21.154527 4.671638 33.477141  
2002-08-26 07:35:44 51°9.712 2°39.216 20.891897 4.67206 33.479979  
2002-08-26 07:35:51 51°9.706 2°39.171 21.150944 4.672693 33.485062  
2002-08-26 07:35:56 51°9.703 2°39.138 21.150944 4.672693 33.485062  
2002-08-26 07:36:02 51°9.699 2°39.099 20.889979 4.672904 33.488409  
2002-08-26 07:36:06 51°9.696 2°39.073 21.020682 4.673432 33.493748  
2002-08-26 07:36:11 51°9.693 2°39.04 20.823858 4.673537 33.494044  
2002-08-26 07:36:16 51°9.69 2°39.007 21.312196 4.674171 33.50023  
2002-08-26 07:36:20 51°9.686 2°38.981 21.052343 4.674593 33.505273  
2002-08-26 07:36:26 51°9.682 2°38.942 21.052343 4.674593 33.505273  
2002-08-26 07:36:31 51°9.678 2°38.91 20.92134 4.674698 33.507223  
2002-08-26 07:36:36 51°9.675 2°38.877 21.248296 4.67512 33.510613  
2002-08-26 07:36:39 51°9.672 2°38.857 20.854408 4.675542 33.514554  
2002-08-26 07:36:43 51°9.67 2°38.831 21.052383 4.675964 33.517392  
2002-08-26 07:36:51 51°9.664 2°38.779 20.986293 4.675965 33.519047  
2002-08-26 07:36:56 51°9.661 2°38.747 20.986293 4.675965 33.519047  
2002-08-26 07:37:00 51°9.657 2°38.721 20.985215 4.676281 33.521038  
2002-08-26 07:37:06 51°9.654 2°38.682 20.919422 4.676703 33.524428  
2002-08-26 07:37:11 51°9.648 2°38.65 20.886223 4.677125 33.527266  
2002-08-26 07:37:16 51°9.645 2°38.617 20.985096 4.676914 33.525019  
2002-08-26 07:37:20 51°9.642 2°38.591 20.950929 4.677442 33.529256  
2002-08-26 07:37:25 51°9.638 2°38.56 20.950929 4.677442 33.529256  
2002-08-26 07:37:31 51°9.635 2°38.52 20.84985 4.678075 33.534893  
2002-08-26 07:37:36 51°9.632 2°38.488 20.95053 4.677653 33.532055  
2002-08-26 07:37:42 51°9.628 2°38.449 20.916467 4.67818 33.537396  
2002-08-26 07:37:46 51°9.624 2°38.423 20.68662 4.678814 33.543034  
2002-08-26 07:37:51 51°9.622 2°38.391 21.113751 4.678497 33.541043  
2002-08-26 07:37:56 51°9.617 2°38.359 21.113751 4.678497 33.541043  
2002-08-26 07:37:59 51°9.616 2°38.34 21.046761 4.679025 33.545281  
2002-08-26 07:38:07 51°9.609 2°38.288 20.883506 4.678814 33.545795  
2002-08-26 07:38:11 51°9.609 2°38.262 21.146286 4.679341 33.548929  
2002-08-26 07:38:16 51°9.603 2°38.23 20.982023 4.679974 33.554567  
2002-08-26 07:38:20 51°9.603 2°38.204 20.984417 4.679763 33.552871  
2002-08-26 07:38:27 51°9.597 2°38.159 20.984417 4.679763 33.552871  
2002-08-26 07:38:31 51°9.597 2°38.133 20.687382 4.679869 33.554271  
2002-08-26 07:38:36 51°9.592 2°38.101 20.917505 4.680502 33.5577  
2002-08-26 07:38:40 51°9.592 2°38.075 21.015855 4.680607 33.560205  
2002-08-26 07:38:47 51°9.587 2°38.029 21.01426 4.68103 33.562491  
2002-08-26 07:38:51 51°9.585 2°38.003 20.916626 4.681135 33.562786  
2002-08-26 07:38:56 51°9.582 2°37.971 20.916626 4.681135 33.562786  
2002-08-26 07:39:00 51°9.581 2°37.945 20.885024 4.681452 33.565882  
2002-08-26 07:39:04 51°9.577 2°37.919 21.014579 4.681557 33.566177  
2002-08-26 07:39:11 51°9.574 2°37.873 21.049074 4.681663 33.567577  
2002-08-26 07:39:16 51°9.574 2°37.84 20.854847 4.68219 33.572921  
2002-08-26 07:39:21 51°9.569 2°37.808 21.180916 4.68219 33.572368  
2002-08-26 07:39:26 51°9.568 2°37.776 21.180916 4.68219 33.572368  
2002-08-26 07:39:31 51°9.565 2°37.743 20.789693 4.682507 33.574359  
2002-08-26 07:39:36 51°9.564 2°37.71 20.986692 4.682718 33.576054  
2002-08-26 07:39:40 51°9.561 2°37.685 20.758195 4.682401 33.572406  
2002-08-26 07:39:43 51°9.559 2°37.665 20.858525 4.682401 33.572959  
2002-08-26 07:39:51 51°9.555 2°37.613 21.18394 4.682085 33.56931  
2002-08-26 07:39:56 51°9.553 2°37.58 21.18394 4.682085 33.56931  
2002-08-26 07:39:59 51°9.552 2°37.561 21.120164 4.68219 33.570158  
2002-08-26 07:40:07 51°9.547 2°37.509 20.923936 4.682401 33.571301  
2002-08-26 07:40:11 51°9.544 2°37.483 21.088294 4.682507 33.571596  
2002-08-26 07:40:16 51°9.541 2°37.451 20.957955 4.682718 33.572186  
2002-08-26 07:40:21 51°9.538 2°37.419 20.730126 4.682507 33.571043  
2002-08-26 07:40:24 51°9.537 2°37.399 20.730126 4.682507 33.571043  
2002-08-26 07:40:31 51°9.532 2°37.353 20.796335 4.680396 33.553538  
2002-08-26 07:40:36 51°9.531 2°37.32 21.189432 4.681874 33.565405  
2002-08-26 07:40:40 51°9.526 2°37.294 20.993116 4.680924 33.556672  
2002-08-26 07:40:46 51°9.525 2°37.254 21.026544 4.681452 33.560357  
2002-08-26 07:40:51 51°9.522 2°37.221 20.830017 4.682401 33.567433  
2002-08-26 07:40:56 51°9.52 2°37.188 20.830017 4.682401 33.567433  
2002-08-26 07:41:00 51°9.516 2°37.162 21.122235 4.681135 33.557262  
2002-08-26 07:41:07 51°9.514 2°37.116 20.763158 4.684828 33.584717  
2002-08-26 07:41:11 51°9.51 2°37.09 21.184696 4.681663 33.55929  
2002-08-26 07:41:16 51°9.508 2°37.057 21.020203 4.683034 33.570861  
2002-08-26 07:41:20 51°9.506 2°37.03 20.788413 4.682085 33.56268  
2002-08-26 07:41:25 51°9.503 2°36.998 20.788413 4.682085 33.56268  
2002-08-26 07:41:31 51°9.5 2°36.958 21.04724 4.682929 33.570013  
2002-08-26 07:41:36 51°9.498 2°36.925 20.814938 4.686094 33.595994  
2002-08-26 07:41:41 51°9.495 2°36.892 20.878311 4.684617 33.58468  
2002-08-26 07:41:44 51°9.495 2°36.872 20.908438 4.685778 33.59511  
2002-08-26 07:41:51 51°9.491 2°36.826 20.972405 4.683984 33.581805  
2002-08-26 07:41:56 51°9.492 2°36.792 20.972405 4.683984 33.581805  
2002-08-26 07:42:00 51°9.489 2°36.766 20.966857 4.683773 33.581215  
2002-08-26 07:42:06 51°9.488 2°36.726 20.965141 4.68525 33.595295  
2002-08-26 07:42:11 51°9.486 2°36.693 21.029296 4.684723 33.593268  
2002-08-26 07:42:16 51°9.487 2°36.66 21.190068 4.685778 33.60396  
2002-08-26 07:42:19 51°9.487 2°36.64 20.925373 4.685356 33.602781  
2002-08-26 07:42:26 51°9.487 2°36.594 20.925373 4.685356 33.602781  
2002-08-26 07:42:31 51°9.487 2°36.561 20.860524 4.68715 33.618858  
2002-08-26 07:42:36 51°9.49 2°36.528 21.020283 4.684195 33.597879  
2002-08-26 07:42:39 51°9.49 2°36.508 20.986293 4.684195 33.597326  
2002-08-26 07:42:47 51°9.494 2°36.456 20.951847 4.686939 33.622698  
2002-08-26 07:42:51 51°9.494 2°36.429 20.916427 4.68715 33.628272  
2002-08-26 07:42:56 51°9.5 2°36.398 20.916427 4.68715 33.628272  
2002-08-26 07:43:00 51°9.502 2°36.372 20.75267 4.685884 33.618093  
2002-08-26 07:43:07 51°9.512 2°36.33 20.718191 4.684829 33.611825  
2002-08-26 07:43:11 51°9.516 2°36.304 20.750668 4.687045 33.630748  
2002-08-26 07:43:16 51°9.523 2°36.275 20.85013 4.687467 33.63525  
2002-08-26 07:43:21 51°9.532 2°36.246 20.979349 4.686517 33.62983  
2002-08-26 07:43:26 51°9.539 2°36.217 20.979349 4.686517 33.62983  
2002-08-26 07:43:31 51°9.55 2°36.191 20.946737 4.686939 33.634332  
2002-08-26 07:43:36 51°9.561 2°36.165 20.815858 4.687572 33.639978  
2002-08-26 07:43:40 51°9.571 2°36.146 20.750508 4.685251 33.621865  
2002-08-26 07:43:46 51°9.587 2°36.119 20.87947 4.688839 33.651824  
2002-08-26 07:43:51 51°9.6 2°36.098 20.943144 4.688311 33.64869  
2002-08-26 07:43:56 51°9.614 2°36.077 20.943144 4.688311 33.64869  
2002-08-26 07:44:00 51°9.625 2°36.061 20.975079 4.689683 33.658613  
2002-08-26 07:44:06 51°9.643 2°36.037 20.908517 4.69021 33.662856  
2002-08-26 07:44:11 51°9.658 2°36.019 20.973163 4.690527 33.665403  
2002-08-26 07:44:16 51°9.674 2°36.001 21.167982 4.691055 33.671311  
2002-08-26 07:44:20 51°9.686 2°35.987 20.874714 4.690316 33.665924  
2002-08-26 07:44:26 51°9.706 2°35.969 20.874714 4.690316 33.665924  
2002-08-26 07:44:31 51°9.722 2°35.955 20.840054 4.691793 33.678917  
2002-08-26 07:44:36 51°9.739 2°35.941 20.940389 4.692532 33.685969  
2002-08-26 07:44:39 51°9.748 2°35.933 21.1347 4.690422 33.668993  
2002-08-26 07:44:43 51°9.762 2°35.925 20.843213 4.691055 33.675751  
2002-08-26 07:44:51 51°9.789 2°35.905 20.809218 4.692532 33.68708  
2002-08-26 07:44:56 51°9.806 2°35.894 20.809218 4.692532 33.68708  
2002-08-26 07:45:01 51°9.822 2°35.881 20.940788 4.693693 33.696973  
2002-08-26 07:45:06 51°9.84 2°35.871 21.105943 4.695909 33.714801  
2002-08-26 07:45:11 51°9.856 2°35.858 21.1067 4.693587 33.696679  
2002-08-26 07:45:16 51°9.873 2°35.848 21.074984 4.696753 33.722149  
2002-08-26 07:45:22 51°9.894 2°35.833 20.913111 4.696858 33.722998  
2002-08-26 07:45:26 51°9.908 2°35.825 20.913111 4.696858 33.722998  
2002-08-26 07:45:31 51°9.925 2°35.814 20.97883 4.697492 33.726425  
2002-08-26 07:45:36 51°9.942 2°35.805 21.012106 4.697175 33.725546  
2002-08-26 07:45:40 51°9.956 2°35.798 20.910874 4.697281 33.725283  
2002-08-26 07:45:46 51°9.977 2°35.79 21.1683 4.696858 33.720219  
2002-08-26 07:45:51 51°9.995 2°35.786 20.964861 4.697492 33.725869  
2002-08-26 07:45:56 51°10.012 2°35.783 20.964861 4.697492 33.725869  
2002-08-26 07:46:00 51°10.026 2°35.781 20.819978 4.697175 33.72221  
2002-08-26 07:46:04 51°10.04 2°35.781 20.777368 4.697597 33.72505  
2002-08-26 07:46:11 51°10.065 2°35.781 20.667142 4.697386 33.723353  
2002-08-26 07:46:16 51°10.082 2°35.783 20.949572 4.698019 33.729558  
2002-08-26 07:46:19 51°10.092 2°35.787 20.909436 4.698441 33.736847  
2002-08-26 07:46:27 51°10.117 2°35.799 20.909436 4.698441 33.736847  
2002-08-26 07:46:31 51°10.13 2°35.807 21.095744 4.699497 33.749789  
2002-08-26 07:46:36 51°10.145 2°35.817 20.990483 4.700341 33.762707  
2002-08-26 07:46:39 51°10.154 2°35.823 20.914629 4.701502 33.781522  
2002-08-26 07:46:47 51°10.179 2°35.841 21.195917 4.702241 33.796392  
2002-08-26 07:46:51 51°10.19 2°35.852 20.931164 4.703824 33.816397  
2002-08-26 07:46:56 51°10.205 2°35.864 20.931164 4.703824 33.816397  
2002-08-26 07:47:00 51°10.217 2°35.874 20.759796 4.705301 33.835562  
2002-08-26 07:47:06 51°10.235 2°35.889 20.818538 4.70604 33.847663  
2002-08-26 07:47:11 51°10.249 2°35.902 20.917345 4.707729 33.872462  
2002-08-26 07:47:16 51°10.264 2°35.914 21.04425 4.708362 33.882047  
2002-08-26 07:47:19 51°10.273 2°35.922 20.745863 4.709628 33.900104  
2002-08-26 07:47:24 51°10.288 2°35.935 20.745863 4.709628 33.900104  
2002-08-26 07:47:31 51°10.309 2°35.953 21.132709 4.710895 33.915927  
2002-08-26 07:47:36 51°10.325 2°35.965 21.033802 4.710789 33.921244  
2002-08-26 07:47:40 51°10.337 2°35.976 20.929926 4.711 33.927436  
2002-08-26 07:47:46 51°10.355 2°35.99 20.859325 4.710789 33.929661  
2002-08-26 07:47:51 51°10.371 2°36.003 20.923097 4.710473 33.929911  
2002-08-26 07:47:56 51°10.386 2°36.015 20.923097 4.710473 33.929911  
2002-08-26 07:48:02 51°10.405 2°36.03 20.721075 4.711106 33.937831  
2002-08-26 07:48:06 51°10.418 2°36.039 20.94514 4.71079 33.938082  
2002-08-26 07:48:11 51°10.433 2°36.052 20.580387 4.710684 33.941161  
2002-08-26 07:48:16 51°10.449 2°36.063 20.937873 4.711317 33.94796  
2002-08-26 07:48:20 51°10.461 2°36.074 21.035398 4.71079 33.94707  
2002-08-26 07:48:26 51°10.481 2°36.087 21.035398 4.71079 33.94707  
2002-08-26 07:48:31 51°10.496 2°36.1 21.032447 4.71079 33.951003  
2002-08-26 07:48:36 51°10.512 2°36.11 20.769443 4.710895 33.954666  
2002-08-26 07:48:40 51°10.524 2°36.121 20.703489 4.710684 33.958021  
2002-08-26 07:48:46 51°10.543 2°36.134 20.766521 4.71079 33.961123  
2002-08-26 07:48:52 51°10.562 2°36.148 20.799856 4.710368 33.961087  
2002-08-26 07:48:56 51°10.575 2°36.156 20.799856 4.710368 33.961087  
2002-08-26 07:49:00 51°10.587 2°36.167 20.930206 4.710473 33.963065  
2002-08-26 07:49:07 51°10.61 2°36.183 20.731328 4.709946 33.960488  
2002-08-26 07:49:11 51°10.622 2°36.192 21.029894 4.709735 33.96047  
2002-08-26 07:49:16 51°10.638 2°36.203 20.797336 4.709629 33.96018  
2002-08-26 07:49:22 51°10.657 2°36.217 20.763639 4.709524 33.960452  
2002-08-26 07:49:26 51°10.67 2°36.225 20.763639 4.709524 33.960452  
2002-08-26 07:49:31 51°10.685 2°36.238 20.828057 4.709524 33.961015  
2002-08-26 07:49:36 51°10.701 2°36.248 20.826817 4.709207 33.960143  
2002-08-26 07:49:40 51°10.714 2°36.258 20.695075 4.709313 33.960996  
2002-08-26 07:49:46 51°10.733 2°36.27 20.792134 4.709102 33.959853  
2002-08-26 07:49:51 51°10.749 2°36.282 20.792734 4.709946 33.966677  
2002-08-26 07:49:56 51°10.765 2°36.292 20.792734 4.709946 33.966677  
2002-08-26 07:50:00 51°10.778 2°36.302 21.08403 4.708996 33.960125  
2002-08-26 07:50:06 51°10.797 2°36.315 20.721275 4.708996 33.960688  
2002-08-26 07:50:11 51°10.813 2°36.326 20.784131 4.708891 33.961523  
2002-08-26 07:50:16 51°10.829 2°36.338 20.748987 4.708785 33.96067  
2002-08-26 07:50:20 51°10.841 2°36.348 21.105505 4.708891 33.962649  
2002-08-26 07:50:25 51°10.857 2°36.36 21.105505 4.708891 33.962649  
2002-08-26 07:50:31 51°10.875 2°36.376 20.645253 4.70868 33.962068  
2002-08-26 07:50:36 51°10.89 2°36.388 20.668184 4.708891 33.9649  
2002-08-26 07:50:40 51°10.902 2°36.399 20.796095 4.708785 33.965735  
2002-08-26 07:50:46 51°10.92 2°36.414 20.983539 4.70868 33.967134  
2002-08-26 07:50:51 51°10.935 2°36.427 20.485648 4.707941 33.963413  
2002-08-26 07:50:56 51°10.95 2°36.44 20.485648 4.707941 33.963413  
2002-08-26 07:51:01 51°10.965 2°36.453 20.680168 4.708574 33.970785  
2002-08-26 07:51:06 51°10.98 2°36.467 20.540402 4.708363 33.971894  
2002-08-26 07:51:11 51°10.995 2°36.479 20.603901 4.708258 33.97442  
2002-08-26 07:51:16 51°11.01 2°36.492 20.766001 4.708153 33.976947  
2002-08-26 07:51:20 51°11.022 2°36.502 20.822898 4.707731 33.981422  
2002-08-26 07:51:26 51°11.04 2°36.518 20.822898 4.707731 33.981422  
2002-08-26 07:51:31 51°11.055 2°36.53 20.628089 4.708258 33.989073  
2002-08-26 07:51:40 51°11.082 2°36.554 20.85069 4.707414 33.991829  
2002-08-26 07:51:45 51°11.097 2°36.567 20.749147 4.707309 33.993231  
2002-08-26 07:51:50 51°11.112 2°36.58 20.749147 4.707309 33.993231  
2002-08-26 07:51:55 51°11.127 2°36.593 20.975997 4.706781 33.993474  
2002-08-26 07:52:00 51°11.142 2°36.606 20.87867 4.70657 33.994022  
2002-08-26 07:52:05 51°11.157 2°36.618 20.972724 4.706676 33.997134  
2002-08-26 07:52:10 51°11.172 2°36.632 20.579223 4.705832 33.991992  
2002-08-26 07:52:15 51°11.187 2°36.644 20.511725 4.706043 33.99483  
2002-08-26 07:52:20 51°11.202 2°36.658 20.511725 4.706043 33.99483  
2002-08-26 07:52:24 51°11.214 2°36.667 20.872755 4.705199 33.99138  
2002-08-26 07:52:31 51°11.235 2°36.685 20.71054 4.70541 33.994783  
2002-08-26 07:52:35 51°11.247 2°36.695 20.541848 4.705199 33.995332  
2002-08-26 07:52:40 51°11.262 2°36.708 20.471983 4.704671 33.992188  
2002-08-26 07:52:45 51°11.277 2°36.72 20.667342 4.70446 33.991043  
2002-08-26 07:52:50 51°11.292 2°36.733 20.667342 4.70446 33.991043  
2002-08-26 07:52:55 51°11.307 2°36.746 20.630696 4.70446 33.992737  
2002-08-26 07:53:00 51°11.322 2°36.759 20.497261 4.703405 33.984191  
2002-08-26 07:53:05 51°11.337 2°36.771 20.59058 4.703405 33.98532  
2002-08-26 07:53:11 51°11.355 2°36.787 20.946977 4.702983 33.984159  
2002-08-26 07:53:15 51°11.367 2°36.797 20.682733 4.703299 33.988417  
2002-08-26 07:53:20 51°11.382 2°36.811 20.682733 4.703299 33.988417  
2002-08-26 07:53:24 51°11.394 2°36.82 20.418705 4.702772 33.985837  
2002-08-26 07:53:31 51°11.415 2°36.839 20.90684 4.702772 33.98866  
2002-08-26 07:53:35 51°11.426 2°36.85 20.545382 4.702666 33.990064  
2002-08-26 07:53:40 51°11.441 2°36.863 20.511404 4.702455 33.991744  
2002-08-26 07:53:45 51°11.456 2°36.876 20.608755 4.70235 33.993148  
2002-08-26 07:53:50 51°11.471 2°36.888 20.608755 4.70235 33.993148  
2002-08-26 07:53:55 51°11.486 2°36.901 20.53972 4.702139 33.994828  
2002-08-26 07:54:00 51°11.501 2°36.913 20.637313 4.702561 33.999944  
2002-08-26 07:54:05 51°11.516 2°36.926 20.800696 4.702245 33.998509  
2002-08-26 07:54:10 51°11.531 2°36.938 20.729806 4.702139 33.999914  
2002-08-26 07:54:15 51°11.546 2°36.952 20.631177 4.70235 34.003321  
2002-08-26 07:54:20 51°11.561 2°36.963 20.631177 4.70235 34.003321  
2002-08-26 07:54:25 51°11.576 2°36.977 20.794295 4.702772 34.007308  
2002-08-26 07:54:30 51°11.591 2°36.989 20.793495 4.702667 34.007583  
2002-08-26 07:54:35 51°11.606 2°37.002 20.795895 4.702667 34.010411  
2002-08-26 07:54:40 51°11.621 2°37.013 20.798776 4.702772 34.012397  
2002-08-26 07:54:45 51°11.635 2°37.027 20.86624 4.702983 34.016371  
2002-08-26 07:54:51 51°11.654 2°37.041 20.86624 4.702983 34.016371  
2002-08-26 07:54:55 51°11.665 2°37.053 20.805417 4.703089 34.017792  
2002-08-26 07:55:00 51°11.681 2°37.064 20.844092 4.703195 34.019779  
2002-08-26 07:55:04 51°11.692 2°37.075 20.655717 4.703195 34.019213  
2002-08-26 07:55:11 51°11.713 2°37.092 20.595676 4.702983 34.016937  
2002-08-26 07:55:15 51°11.725 2°37.103 20.736093 4.702245 34.009817  
2002-08-26 07:55:20 51°11.74 2°37.115 20.736093 4.702245 34.009817  
2002-08-26 07:55:24 51°11.752 2°37.125 20.743581 4.701506 34.002132  
2002-08-26 07:55:31 51°11.773 2°37.143 20.883506 4.700978 33.994463  
2002-08-26 07:55:35 51°11.785 2°37.152 20.762078 4.699501 33.979099  
2002-08-26 07:55:40 51°11.8 2°37.165 20.737815 4.698762 33.96803  
2002-08-26 07:55:45 51°11.815 2°37.178 20.645613 4.697707 33.954401  
2002-08-26 07:55:50 51°11.83 2°37.19 20.645613 4.697707 33.954401  
2002-08-26 07:55:55 51°11.845 2°37.203 20.652069 4.697285 33.944776  
2002-08-26 07:56:00 51°11.859 2°37.215 21.020044 4.685888 33.846866  
2002-08-26 07:56:05 51°11.874 2°37.228 20.699482 4.695807 33.920976  
2002-08-26 07:56:07 51°11.88 2°37.232 20.703289 4.695385 33.911364  
2002-08-26 07:56:15 51°11.904 2°37.253 20.675519 4.694752 33.899484  
2002-08-26 07:56:20 51°11.919 2°37.265 20.675519 4.694752 33.899484  
2002-08-26 07:56:24 51°11.931 2°37.276 20.875953 4.694646 33.891879  
2002-08-26 07:56:31 51°11.952 2°37.293 20.615134 4.694013 33.880572  
2002-08-26 07:56:35 51°11.963 2°37.304 20.814458 4.693591 33.872661  
2002-08-26 07:56:40 51°11.979 2°37.315 20.653632 4.693063 33.862776  
2002-08-26 07:56:45 51°11.994 2°37.328 20.820938 4.692535 33.854018  
2002-08-26 07:56:50 51°12.009 2°37.34 20.820938 4.692535 33.854018  
2002-08-26 07:56:55 51°12.024 2°37.354 20.759115 4.692219 33.848091  
2002-08-26 07:57:00 51°12.039 2°37.366 20.927211 4.691691 33.840459  
2002-08-26 07:57:05 51°12.053 2°37.379 20.86624 4.691163 33.83395  
2002-08-26 07:57:11 51°12.072 2°37.393 21.098255 4.690002 33.822886  
2002-08-26 07:57:15 51°12.083 2°37.404 20.677122 4.689791 33.817817  
2002-08-26 07:57:20 51°12.099 2°37.415 20.677122 4.689791 33.817817  
2002-08-26 07:57:24 51°12.111 2°37.426 20.844252 4.688736 33.807609  
2002-08-26 07:57:31 51°12.132 2°37.443 21.012345 4.688103 33.799132  
2002-08-26 07:57:35 51°12.144 2°37.454 20.952366 4.687575 33.792069  
2002-08-26 07:57:40 51°12.159 2°37.464 20.890139 4.686626 33.782718  
2002-08-26 07:57:45 51°12.174 2°37.477 20.729886 4.686203 33.774832  
2002-08-26 07:57:50 51°12.19 2°37.487 20.729886 4.686203 33.774832  
2002-08-26 07:57:55 51°12.205 2°37.5 20.797016 4.685676 33.766655  
2002-08-26 07:58:00 51°12.22 2°37.511 20.73365 4.654125 33.509242  
2002-08-26 07:58:05 51°12.235 2°37.523 20.637433 4.66531 33.595578  
2002-08-26 07:58:10 51°12.251 2°37.533 20.869358 4.633127 33.333328  
2002-08-26 07:58:15 51°12.266 2°37.545 20.609758 4.652226 33.485052  
2002-08-26 07:58:20 51°12.282 2°37.555 20.609758 4.652226 33.485052  
2002-08-26 07:58:25 51°12.297 2°37.568 20.711101 4.633338 33.32896  
2002-08-26 07:58:30 51°12.313 2°37.578 20.909956 4.6326 33.322458  
2002-08-26 07:58:35 51°12.327 2°37.59 20.683655 4.684304 33.73658  
2002-08-26 07:58:40 51°12.343 2°37.6 21.012864 4.683459 33.727534  
2002-08-26 07:58:44 51°12.355 2°37.61 21.211352 4.683248 33.724715  
2002-08-26 07:58:51 51°12.377 2°37.625 21.211352 4.683248 33.724715  
2002-08-26 07:58:55 51°12.389 2°37.636 20.821498 4.682721 33.718225  
2002-08-26 07:59:00 51°12.405 2°37.646 20.759035 4.682615 33.715142  
2002-08-26 07:59:04 51°12.417 2°37.656 20.695796 4.681982 33.707803  
2002-08-26 07:59:10 51°12.436 2°37.668 20.730767 4.681454 33.700201  
2002-08-26 07:59:15 51°12.451 2°37.68 21.256406 4.680293 33.690839  
2002-08-26 07:59:20 51°12.466 2°37.691 21.256406 4.680293 33.690839  
2002-08-26 07:59:24 51°12.478 2°37.7 20.768682 4.679449 33.681244  
2002-08-26 07:59:31 51°12.5 2°37.715 20.802817 4.678605 33.672765  
2002-08-26 07:59:35 51°12.512 2°37.725 20.837175 4.677339 33.660883  
2002-08-26 07:59:40 51°12.528 2°37.736 20.839454 4.676389 33.650443  
2002-08-26 07:59:45 51°12.543 2°37.749 20.972565 4.674806 33.636569  
2002-08-26 07:59:50 51°12.559 2°37.759 20.972565 4.674806 33.636569  
2002-08-26 07:59:55 51°12.574 2°37.772 20.877311 4.673857 33.626688  
2002-08-26 08:00:00 51°12.589 2°37.782 21.010072 4.673012 33.61766  
2002-08-26 08:00:05 51°12.604 2°37.796 20.915228 4.672063 33.608894  
2002-08-26 08:00:10 51°12.62 2°37.807 21.177852 4.671535 33.602975  
2002-08-26 08:00:15 51°12.634 2°37.82 21.082037 4.671113 33.596797  
2002-08-26 08:00:20 51°12.65 2°37.831 21.082037 4.671113 33.596797  
2002-08-26 08:00:25 51°12.665 2°37.844 21.051267 4.670374 33.590289  
2002-08-26 08:00:30 51°12.68 2°37.856 20.856247 4.669424 33.580972  
2002-08-26 08:00:35 51°12.695 2°37.869 20.792214 4.669213 33.577051  
2002-08-26 08:00:40 51°12.71 2°37.881 20.924095 4.668475 33.568326  
2002-08-26 08:00:44 51°12.722 2°37.89 20.663173 4.667631 33.560417  
2002-08-26 08:00:51 51°12.744 2°37.908 20.663173 4.667631 33.560417  
2002-08-26 08:00:55 51°12.756 2°37.917 20.828497 4.666892 33.553358  
2002-08-26 08:01:00 51°12.771 2°37.93 20.928968 4.666997 33.552545  
2002-08-26 08:01:04 51°12.783 2°37.939 20.865121 4.666681 33.548886  
2002-08-26 08:01:10 51°12.801 2°37.954 20.899529 4.666048 33.542125  
2002-08-26 08:01:15 51°12.817 2°37.965 20.999221 4.664992 33.533073  
2002-08-26 08:01:20 51°12.832 2°37.979 20.999221 4.664992 33.533073  
2002-08-26 08:01:24 51°12.844 2°37.988 21.034321 4.664676 33.52997  
2002-08-26 08:01:30 51°12.862 2°38.003 21.229966 4.663621 33.519811  
2002-08-26 08:01:35 51°12.878 2°38.014 20.741499 4.662671 33.511058  
2002-08-26 08:01:40 51°12.893 2°38.027 21.036713 4.661616 33.501455  
2002-08-26 08:01:44 51°12.905 2°38.036 21.135138 4.661088 33.494994  
2002-08-26 08:01:50 51°12.924 2°38.051 21.135138 4.661088 33.494994  
2002-08-26 08:01:55 51°12.94 2°38.062 21.105545 4.660033 33.485394  
2002-08-26 08:02:00 51°12.954 2°38.075 20.779729 4.659611 33.480338  
2002-08-26 08:02:04 51°12.966 2°38.084 21.140433 4.658978 33.474689  
2002-08-26 08:02:10 51°12.984 2°38.1 21.109409 4.657923 33.466196  
2002-08-26 08:02:15 51°13 2°38.11 20.78253 4.657606 33.46199  
2002-08-26 08:02:20 51°13.015 2°38.123 20.78253 4.657606 33.46199